Weather History for Calgary Springbank, AB

Change the Weather History Date:

Thursday, September 5, 2013

  Actual Average Record
Temperature  
Mean Temperature 62 °F -  
Max Temperature 80 °F 57 °F 84 °F (2003)
Min Temperature 45 °F 34 °F 30 °F (2000)
Degree Days  
Heating Degree Days 2    
Growing Degree Days 12 (Base 50)    
Moisture  
Dew Point 51 °F    
Average Humidity 58    
Maximum Humidity 93    
Minimum Humidity 30    
Precipitation  
Precipitation 0.00 in - - ()
Sea Level Pressure  
Sea Level Pressure 30.08 in    
Wind  
Wind Speed 5 mph ()    
Max Wind Speed 12 mph    
Max Gust Speed -    
Visibility 15.8 miles    
Events      
Averages and records for this station are not official NWS values.
T = Trace of Precipitation, MM = Missing Value Source: Averaged Metar Reports

Daily Weather History Graph

Daily Weather History Graph

Search for Another Location

Airport:

Trip Planner

Search our weather history database for the weather conditions in past years. The results will help you decide how hot, cold, wet, or windy it might be!

Date:

Astronomy

Sep. 05, 2013 Rise Set
Actual Time 6:57 AM MDT 8:13 PM MDT
Civil Twilight 6:23 AM MDT 8:47 PM MDT
Nautical Twilight 5:41 AM MDT 9:28 PM MDT
Astronomical Twilight 4:56 AM MDT 10:13 PM MDT
Moon 7:21 AM MDT (9/5) 7:56 PM MDT (9/5)
Length of Visible Light 14h 23m
Length of Day
13h 15m
New Moon, 0% of the Moon is Illuminated
Sep 5
New Moon
Sep 12
First Quarter
Sep 19
Full
Sep 26
Last Quarter
Oct 4
New

Hourly Weather History & Observations

Time (MDT) Temp. Windchill Dew Point Humidity Pressure Visibility Wind Dir Wind Speed Gust Speed Precip Events Conditions
5:00 AM 46.4 °F 43.5 °F 44.6 °F 93% 30.08 in 15.0 mi NW 5.8 mph - N/A   Scattered Clouds
6:00 AM 50 °F - 46 °F 80% 30.07 in 15 mi West 5.8 mph - -   Scattered Clouds
6:00 AM 50.0 °F - 46.4 °F 87% 30.07 in 15.0 mi WNW 5.8 mph - N/A   Scattered Clouds
7:00 AM 50.0 °F - 46.4 °F 87% 30.12 in 20.0 mi NW 5.8 mph - N/A   Mostly Cloudy
8:00 AM 55.4 °F - 50.0 °F 82% 30.13 in 25.0 mi WNW 9.2 mph - N/A   Mostly Cloudy
9:00 AM 59.0 °F - 50.0 °F 72% 30.14 in 25.0 mi NNW 6.9 mph - N/A   Mostly Cloudy
10:00 AM 68.0 °F - 50.0 °F 52% 30.11 in 25.0 mi NW 11.5 mph - N/A   Scattered Clouds
11:00 AM 71.6 °F - 50.0 °F 46% 30.12 in 25.0 mi WNW 8.1 mph - N/A   Scattered Clouds
12:00 PM 75 °F - 50 °F 30% 30.10 in 25 mi NNW 5.8 mph - -   Partly Cloudy
12:00 PM 75.2 °F - 50.0 °F 41% 30.09 in 25.0 mi NW 5.8 mph - N/A   Mostly Cloudy
1:00 PM 77.0 °F - 46.4 °F 34% 30.09 in 25.0 mi Variable 2.3 mph - N/A   Mostly Cloudy
2:00 PM 80.6 °F - 50.0 °F 34% 30.07 in 40.0 mi East 5.8 mph - N/A   Scattered Clouds
3:00 PM 75.2 °F - 55.4 °F 50% 30.06 in 40.0 mi SW 3.5 mph - N/A   Mostly Cloudy
4:00 PM 75.2 °F - 57.2 °F 53% 30.06 in 40.0 mi West 4.6 mph - N/A   Mostly Cloudy
5:00 PM 77.0 °F - 55.4 °F 47% 30.05 in 40.0 mi WNW 5.8 mph - N/A   Scattered Clouds
6:00 PM 77.0 °F - 51.8 °F 41% 30.03 in 40.0 mi East 4.6 mph - N/A   Mostly Cloudy
7:00 PM 73.4 °F - 51.8 °F 47% 30.03 in 40.0 mi NNE 8.1 mph - N/A   Mostly Cloudy
8:00 PM 71.6 °F - 53.6 °F 53% 30.01 in 40.0 mi NE 4.6 mph - N/A   Mostly Cloudy
9:00 PM 68.0 °F - 53.6 °F 60% 30.03 in 15.0 mi NNE 8.1 mph - N/A   Mostly Cloudy
10:00 PM 66.2 °F - 53.6 °F 64% 30.07 in 15.0 mi NNE 5.8 mph - N/A   Overcast